Time,TemperatureF,DewpointF,PressureIn,WindDirection,WindDirectionDegrees,WindSpeedMPH,WindSpeedGustMPH,Humidity,HourlyPrecipIn,Conditions,Clouds,dailyrainin,SoftwareType,DateUTC
2013-01-27 00:02:00,36.6,24.8,30.00,SE,131,11.7,11.7,62,0.00,CLR,SKC,0.00,WeatherDisplay:10.37,2013-01-27 06:02:00,
2013-01-27 00:07:00,36.8,25.0,30.00,SSE,155,17.3,17.3,62,0.00,CLR,SKC,0.00,WeatherDisplay:10.37,2013-01-27 06:07:00,
2013-01-27 00:12:00,37.0,24.8,30.00,SE,138,13.8,13.8,61,0.00,CLR,SKC,0.00,WeatherDisplay:10.37,2013-01-27 06:12:00,
2013-01-27 00:17:00,37.0,24.8,30.00,SE,144,15.0,15.0,61,0.00,CLR,SKC,0.00,WeatherDisplay:10.37,2013-01-27 06:17:00,
2013-01-27 00:22:00,37.2,25.0,29.99,SE,134,11.7,11.7,61,0.00,CLR,SKC,0.00,WeatherDisplay:10.37,2013-01-27 06:22:00,
2013-01-27 00:27:00,37.0,24.8,29.99,SE,142,14.8,14.8,61,0.00,CLR,SKC,0.00,WeatherDisplay:10.37,2013-01-27 06:27:00,
2013-01-27 00:32:00,37.0,24.8,29.99,SE,140,13.8,13.8,61,0.00,CLR,SKC,0.00,WeatherDisplay:10.37,2013-01-27 06:32:00,
2013-01-27 00:37:00,37.2,25.0,29.98,SSE,151,12.7,12.7,61,0.00,CLR,SKC,0.00,WeatherDisplay:10.37,2013-01-27 06:37:00,
2013-01-27 00:42:00,37.3,24.7,29.98,SE,141,11.7,11.7,60,0.00,CLR,SKC,0.00,WeatherDisplay:10.37,2013-01-27 06:42:00,
2013-01-27 00:47:00,37.3,24.7,29.98,SSE,161,13.8,13.8,60,0.00,CLR,SKC,0.00,WeatherDisplay:10.37,2013-01-27 06:47:00,
2013-01-27 00:52:00,37.5,24.9,29.98,SE,131,13.8,13.8,60,0.00,CLR,SKC,0.00,WeatherDisplay:10.37,2013-01-27 06:52:00,
2013-01-27 00:57:00,37.6,25.0,29.97,SE,145,11.7,11.7,60,0.00,CLR,SKC,0.00,WeatherDisplay:10.37,2013-01-27 06:57:00,
2013-01-27 01:02:00,37.8,25.1,29.96,SE,138,10.6,10.6,60,0.00,CLR,SKC,0.00,WeatherDisplay:10.37,2013-01-27 07:02:00,
2013-01-27 01:07:00,37.8,25.1,29.96,SSE,147,12.7,12.7,60,0.00,CLR,SKC,0.00,WeatherDisplay:10.37,2013-01-27 07:07:00,
2013-01-27 01:13:00,38.0,25.3,29.96,SE,140,10.6,10.6,60,0.00,CLR,SKC,0.00,WeatherDisplay:10.37,2013-01-27 07:13:00,
2013-01-27 01:18:00,38.0,24.9,29.96,SE,137,10.6,10.6,59,0.00,CLR,SKC,0.00,WeatherDisplay:10.37,2013-01-27 07:18:00,
2013-01-27 01:23:00,38.0,25.3,29.95,ESE,123,11.5,11.5,60,0.00,CLR,SKC,0.00,WeatherDisplay:10.37,2013-01-27 07:23:00,
2013-01-27 01:28:00,38.0,26.1,29.96,SE,141,10.4,10.4,62,0.00,CLR,SKC,0.00,WeatherDisplay:10.37,2013-01-27 07:28:00,
2013-01-27 01:33:00,37.8,26.7,29.96,SE,140,12.7,12.7,64,0.00,CLR,SKC,0.00,WeatherDisplay:10.37,2013-01-27 07:33:00,
2013-01-27 01:38:00,37.6,27.3,29.96,SSE,152,10.6,10.6,66,0.00,CLR,SKC,0.00,WeatherDisplay:10.37,2013-01-27 07:38:00,
2013-01-27 01:43:00,37.5,27.9,29.96,SSE,156,8.5,8.5,68,0.00,CLR,SKC,0.00,WeatherDisplay:10.37,2013-01-27 07:43:00,
2013-01-27 01:48:00,37.3,28.8,29.97,SSE,159,8.5,8.5,71,0.01,RA,SKC,0.01,WeatherDisplay:10.37,2013-01-27 07:48:00,
2013-01-27 01:53:00,37.3,29.4,29.97,SE,144,6.9,6.9,73,0.01,RA,SKC,0.01,WeatherDisplay:10.37,2013-01-27 07:53:00,
2013-01-27 01:58:00,37.2,29.7,29.97,SE,132,4.6,4.6,74,0.01,,SKC,0.01,WeatherDisplay:10.37,2013-01-27 07:58:00,
2013-01-27 02:03:00,37.2,30.0,29.97,SSE,152,6.4,6.4,75,0.01,CLR,SKC,0.01,WeatherDisplay:10.37,2013-01-27 08:03:00,
2013-01-27 02:08:00,37.2,30.3,29.97,SSE,147,6.9,6.9,76,0.01,CLR,SKC,0.01,WeatherDisplay:10.37,2013-01-27 08:08:00,
2013-01-27 02:13:00,37.0,30.5,29.96,SE,131,10.4,10.4,77,0.02,RA,SKC,0.02,WeatherDisplay:10.37,2013-01-27 08:13:00,
2013-01-27 02:18:00,37.0,30.8,29.96,SE,131,8.5,8.5,78,0.02,RA,SKC,0.02,WeatherDisplay:10.37,2013-01-27 08:18:00,
2013-01-27 02:23:00,36.8,30.9,29.97,SSE,155,8.5,8.5,79,0.03,RA,SKC,0.04,WeatherDisplay:10.37,2013-01-27 08:23:00,
2013-01-27 02:28:00,36.5,30.9,29.96,SSE,168,8.1,8.1,80,0.04,RA,SKC,0.04,WeatherDisplay:10.37,2013-01-27 08:28:00,
2013-01-27 02:33:00,36.3,31.0,29.96,SE,138,8.5,8.5,81,0.05,RA,SKC,0.05,WeatherDisplay:10.37,2013-01-27 08:33:00,
2013-01-27 02:38:00,36.2,31.5,29.95,SE,142,10.6,10.6,83,0.05,RA,SKC,0.05,WeatherDisplay:10.37,2013-01-27 08:38:00,
2013-01-27 02:43:00,36.2,31.8,29.95,SE,141,11.7,11.7,84,0.07,RA,SKC,0.07,WeatherDisplay:10.37,2013-01-27 08:43:00,
2013-01-27 02:48:00,36.0,31.6,29.95,ESE,121,12.7,12.7,84,0.08,RA,SKC,0.08,WeatherDisplay:10.37,2013-01-27 08:48:00,
2013-01-27 02:53:00,35.9,31.8,29.95,SE,145,12.7,12.7,85,0.08,RA,SKC,0.09,WeatherDisplay:10.37,2013-01-27 08:53:00,
2013-01-27 02:58:00,35.9,32.1,29.95,SE,142,9.5,9.5,86,0.09,RA,SKC,0.10,WeatherDisplay:10.37,2013-01-27 08:58:00,
2013-01-27 03:03:00,35.9,32.1,29.95,SE,145,13.8,13.8,86,0.10,RA,SKC,0.12,WeatherDisplay:10.37,2013-01-27 09:03:00,
2013-01-27 03:08:00,35.9,32.4,29.95,SE,145,10.6,10.6,87,0.12,RA,SKC,0.13,WeatherDisplay:10.37,2013-01-27 09:08:00,
2013-01-27 03:13:00,35.8,32.3,29.95,SE,137,10.6,10.6,87,0.12,RA,SKC,0.15,WeatherDisplay:10.37,2013-01-27 09:13:00,
2013-01-27 03:18:00,35.8,32.3,29.95,ESE,111,8.5,8.5,87,0.13,RA,SKC,0.16,WeatherDisplay:10.37,2013-01-27 09:18:00,
2013-01-27 03:23:00,35.8,32.6,29.94,SE,124,8.5,8.5,88,0.12,RA,SKC,0.16,WeatherDisplay:10.37,2013-01-27 09:23:00,
2013-01-27 03:28:00,35.6,32.4,29.94,SSE,148,7.4,7.4,88,0.14,RA,SKC,0.19,WeatherDisplay:10.37,2013-01-27 09:28:00,
2013-01-27 03:33:00,35.6,32.7,29.94,SE,134,6.9,6.9,89,0.13,RA,SKC,0.19,WeatherDisplay:10.37,2013-01-27 09:33:00,
2013-01-27 03:38:00,35.6,32.7,29.94,SE,125,10.4,10.4,89,0.14,RA,SKC,0.20,WeatherDisplay:10.37,2013-01-27 09:38:00,
2013-01-27 03:43:00,35.6,32.7,29.93,SE,124,6.9,6.9,89,0.13,RA,SKC,0.20,WeatherDisplay:10.37,2013-01-27 09:43:00,
2013-01-27 03:48:00,35.5,32.6,29.93,ESE,118,8.1,8.1,89,0.12,CLR,SKC,0.20,WeatherDisplay:10.37,2013-01-27 09:48:00,
2013-01-27 03:53:00,35.5,32.6,29.92,ESE,107,8.5,8.5,89,0.11,CLR,SKC,0.20,WeatherDisplay:10.37,2013-01-27 09:53:00,
2013-01-27 03:58:00,35.5,32.9,29.92,ESE,116,9.5,9.5,90,0.10,CLR,SKC,0.20,WeatherDisplay:10.37,2013-01-27 09:58:00,
2013-01-27 04:03:00,35.5,32.9,29.93,ESE,117,6.9,6.9,90,0.08,CLR,SKC,0.20,WeatherDisplay:10.37,2013-01-27 10:03:00,
2013-01-27 04:08:00,35.6,33.0,29.92,ESE,110,10.6,10.6,90,0.07,CLR,SKC,0.20,WeatherDisplay:10.37,2013-01-27 10:08:00,
2013-01-27 04:13:00,35.6,33.2,29.92,ESE,114,8.5,8.5,91,0.05,CLR,SKC,0.20,WeatherDisplay:10.37,2013-01-27 10:13:00,
2013-01-27 04:18:00,35.8,33.4,29.91,ESE,103,11.5,11.5,91,0.04,CLR,SKC,0.20,WeatherDisplay:10.37,2013-01-27 10:18:00,
2013-01-27 04:23:00,35.8,33.4,29.91,ESE,113,9.5,9.5,91,0.03,CLR,SKC,0.20,WeatherDisplay:10.37,2013-01-27 10:23:00,
2013-01-27 04:28:00,35.8,33.4,29.91,ESE,116,10.4,10.4,91,0.03,RA,SKC,0.21,WeatherDisplay:10.37,2013-01-27 10:28:00,
2013-01-27 04:33:00,35.9,33.5,29.90,ESE,121,12.7,12.7,91,0.02,RA,SKC,0.21,WeatherDisplay:10.37,2013-01-27 10:33:00,
2013-01-27 04:38:00,36.0,33.9,29.90,ESE,120,8.5,8.5,92,0.01,CLR,SKC,0.21,WeatherDisplay:10.37,2013-01-27 10:38:00,
2013-01-27 04:43:00,36.2,34.1,29.91,ESE,121,12.7,12.7,92,0.01,CLR,SKC,0.21,WeatherDisplay:10.37,2013-01-27 10:43:00,
2013-01-27 04:49:00,36.2,34.1,29.91,ESE,117,11.7,11.7,92,0.01,CLR,SKC,0.21,WeatherDisplay:10.37,2013-01-27 10:49:00,
2013-01-27 04:54:00,36.3,34.2,29.90,SE,134,11.7,11.7,92,0.01,CLR,SKC,0.21,WeatherDisplay:10.37,2013-01-27 10:54:00,
2013-01-27 04:59:00,36.3,34.2,29.89,SE,128,11.5,11.5,92,0.01,CLR,SKC,0.21,WeatherDisplay:10.37,2013-01-27 10:59:00,
2013-01-27 05:04:00,36.5,34.4,29.89,SE,131,12.7,12.7,92,0.01,CLR,SKC,0.21,WeatherDisplay:10.37,2013-01-27 11:04:00,
2013-01-27 05:09:00,36.5,34.4,29.89,SE,138,13.8,13.8,92,0.01,CLR,SKC,0.21,WeatherDisplay:10.37,2013-01-27 11:09:00,
2013-01-27 05:14:00,36.6,34.5,29.89,ESE,121,12.7,12.7,92,0.01,CLR,SKC,0.21,WeatherDisplay:10.37,2013-01-27 11:14:00,
2013-01-27 05:19:00,36.6,34.5,29.87,ESE,123,12.7,12.7,92,0.01,CLR,SKC,0.21,WeatherDisplay:10.37,2013-01-27 11:19:00,
2013-01-27 05:24:00,36.6,34.5,29.88,ESE,118,11.5,11.5,92,0.01,CLR,SKC,0.21,WeatherDisplay:10.37,2013-01-27 11:24:00,
2013-01-27 05:29:00,36.6,34.5,29.88,ESE,123,15.0,15.0,92,0.00,CLR,SKC,0.21,WeatherDisplay:10.37,2013-01-27 11:29:00,
2013-01-27 05:34:00,36.6,34.5,29.88,ESE,120,10.6,10.6,92,0.00,CLR,SKC,0.21,WeatherDisplay:10.37,2013-01-27 11:34:00,
2013-01-27 05:39:00,36.5,34.4,29.87,SE,124,11.7,11.7,92,0.00,CLR,SKC,0.21,WeatherDisplay:10.37,2013-01-27 11:39:00,
2013-01-27 05:44:00,36.5,34.4,29.87,SE,137,11.5,11.5,92,0.00,CLR,SKC,0.21,WeatherDisplay:10.37,2013-01-27 11:44:00,
2013-01-27 05:49:00,36.5,34.4,29.88,ESE,121,11.5,11.5,92,0.00,CLR,SKC,0.21,WeatherDisplay:10.37,2013-01-27 11:49:00,
2013-01-27 05:54:00,36.5,34.4,29.88,SE,145,12.7,12.7,92,0.00,CLR,SKC,0.21,WeatherDisplay:10.37,2013-01-27 11:54:00,
2013-01-27 05:59:00,36.5,34.4,29.87,SE,134,13.8,13.8,92,0.00,CLR,SKC,0.21,WeatherDisplay:10.37,2013-01-27 11:59:00,
2013-01-27 06:04:00,36.5,34.4,29.87,ESE,120,12.7,12.7,92,0.00,CLR,SKC,0.21,WeatherDisplay:10.37,2013-01-27 12:04:00,
2013-01-27 06:09:00,36.3,34.2,29.87,ESE,121,9.5,9.5,92,0.00,CLR,SKC,0.21,WeatherDisplay:10.37,2013-01-27 12:09:00,
2013-01-27 06:14:00,36.3,34.2,29.87,ESE,111,12.7,12.7,92,0.00,CLR,SKC,0.21,WeatherDisplay:10.37,2013-01-27 12:14:00,
2013-01-27 06:19:00,36.2,34.1,29.88,SE,131,12.7,12.7,92,0.00,CLR,SKC,0.21,WeatherDisplay:10.37,2013-01-27 12:19:00,
2013-01-27 06:24:00,36.3,34.2,29.87,SE,131,11.7,11.7,92,0.00,CLR,SKC,0.21,WeatherDisplay:10.37,2013-01-27 12:24:00,
2013-01-27 06:29:00,36.3,34.2,29.86,ESE,116,10.6,10.6,92,0.00,CLR,SKC,0.21,WeatherDisplay:10.37,2013-01-27 12:29:00,
2013-01-27 06:34:00,36.5,34.4,29.86,SE,125,12.7,12.7,92,0.00,CLR,SKC,0.21,WeatherDisplay:10.37,2013-01-27 12:34:00,
2013-01-27 06:39:00,36.5,34.4,29.87,SE,134,12.7,12.7,92,0.00,CLR,SKC,0.21,WeatherDisplay:10.37,2013-01-27 12:39:00,
2013-01-27 06:44:00,36.6,34.5,29.87,ESE,123,12.7,12.7,92,0.00,CLR,SKC,0.21,WeatherDisplay:10.37,2013-01-27 12:44:00,
2013-01-27 06:49:00,36.6,34.5,29.86,ESE,116,13.8,13.8,92,0.00,CLR,SKC,0.21,WeatherDisplay:10.37,2013-01-27 12:49:00,
2013-01-27 06:54:00,36.8,34.7,29.86,SE,130,11.7,11.7,92,0.00,CLR,SKC,0.21,WeatherDisplay:10.37,2013-01-27 12:54:00,
2013-01-27 06:59:00,36.8,34.7,29.87,SSE,151,10.6,10.6,92,0.00,CLR,SKC,0.21,WeatherDisplay:10.37,2013-01-27 12:59:00,
2013-01-27 07:04:00,36.8,34.7,29.86,SE,144,10.6,10.6,92,0.00,CLR,SKC,0.21,WeatherDisplay:10.37,2013-01-27 13:04:00,
2013-01-27 07:09:00,36.8,34.7,29.88,SE,140,8.1,8.1,92,0.00,CLR,SKC,0.21,WeatherDisplay:10.37,2013-01-27 13:09:00,
2013-01-27 07:14:00,36.9,34.8,29.88,SSE,156,8.5,8.5,92,0.01,RA,SKC,0.22,WeatherDisplay:10.37,2013-01-27 13:14:00,
2013-01-27 07:19:00,36.8,34.7,29.87,SE,144,9.5,9.5,92,0.01,RA,SKC,0.22,WeatherDisplay:10.37,2013-01-27 13:19:00,
2013-01-27 07:24:00,36.8,34.7,29.87,SE,135,11.7,11.7,92,0.01,,SKC,0.22,WeatherDisplay:10.37,2013-01-27 13:24:00,
2013-01-27 07:29:00,36.8,34.7,29.86,ESE,118,12.7,12.7,92,0.01,CLR,SKC,0.22,WeatherDisplay:10.37,2013-01-27 13:29:00,
2013-01-27 07:34:00,36.8,34.7,29.85,SE,130,12.7,12.7,92,0.01,CLR,SKC,0.22,WeatherDisplay:10.37,2013-01-27 13:34:00,
2013-01-27 07:39:00,36.8,34.7,29.86,SE,135,13.8,13.8,92,0.01,CLR,SKC,0.22,WeatherDisplay:10.37,2013-01-27 13:39:00,
2013-01-27 07:44:00,36.9,34.8,29.86,SE,145,11.7,11.7,92,0.01,CLR,SKC,0.22,WeatherDisplay:10.37,2013-01-27 13:44:00,
2013-01-27 07:49:00,36.9,34.8,29.83,SE,127,13.8,13.8,92,0.01,CLR,SKC,0.22,WeatherDisplay:10.37,2013-01-27 13:49:00,
2013-01-27 07:54:00,36.9,34.8,29.83,SE,125,15.0,15.0,92,0.02,RA,SKC,0.23,WeatherDisplay:10.37,2013-01-27 13:54:00,
2013-01-27 07:59:00,36.9,34.8,29.84,South,178,11.5,11.5,92,0.03,RA,SKC,0.24,WeatherDisplay:10.37,2013-01-27 13:59:00,
2013-01-27 08:04:00,36.9,34.8,29.85,SE,140,10.6,10.6,92,0.03,RA,SKC,0.24,WeatherDisplay:10.37,2013-01-27 14:04:00,
2013-01-27 08:09:00,36.9,34.8,29.85,SE,144,10.4,10.4,92,0.03,CLR,SKC,0.24,WeatherDisplay:10.37,2013-01-27 14:09:00,
2013-01-27 08:14:00,36.9,34.8,29.85,SSE,149,12.7,12.7,92,0.02,CLR,SKC,0.24,WeatherDisplay:10.37,2013-01-27 14:14:00,
2013-01-27 08:19:00,36.9,35.1,29.85,SSE,155,11.7,11.7,93,0.02,CLR,SKC,0.24,WeatherDisplay:10.37,2013-01-27 14:19:00,
2013-01-27 08:24:00,37.0,35.2,29.84,SE,137,12.7,12.7,93,0.02,CLR,SKC,0.24,WeatherDisplay:10.37,2013-01-27 14:24:00,
2013-01-27 08:29:00,37.0,35.2,29.85,SE,144,11.5,11.5,93,0.02,CLR,SKC,0.24,WeatherDisplay:10.37,2013-01-27 14:29:00,
2013-01-27 08:34:00,37.0,35.2,29.85,SSE,148,10.6,10.6,93,0.02,CLR,SKC,0.24,WeatherDisplay:10.37,2013-01-27 14:34:00,
2013-01-27 08:39:00,37.0,35.2,29.84,SE,138,10.6,10.6,93,0.02,CLR,SKC,0.24,WeatherDisplay:10.37,2013-01-27 14:39:00,
2013-01-27 08:44:00,37.0,35.2,29.85,SE,144,12.7,12.7,93,0.02,CLR,SKC,0.24,WeatherDisplay:10.37,2013-01-27 14:44:00,
2013-01-27 08:49:00,37.2,35.4,29.85,SSE,154,11.5,11.5,93,0.02,CLR,SKC,0.24,WeatherDisplay:10.37,2013-01-27 14:49:00,
2013-01-27 08:54:00,37.2,35.4,29.85,SE,142,11.7,11.7,93,0.01,CLR,SKC,0.24,WeatherDisplay:10.37,2013-01-27 14:54:00,
2013-01-27 08:59:00,37.2,35.4,29.84,SE,140,8.5,8.5,93,0.00,CLR,SKC,0.24,WeatherDisplay:10.37,2013-01-27 14:59:00,
2013-01-27 09:04:00,37.3,35.5,29.84,SE,137,11.7,11.7,93,0.00,CLR,SKC,0.24,WeatherDisplay:10.37,2013-01-27 15:04:00,
2013-01-27 09:14:00,37.6,35.8,29.83,SE,128,13.8,13.8,93,0.00,RA,SKC,0.24,WeatherDisplay:10.37,2013-01-27 15:14:00,
2013-01-27 09:19:00,37.8,36.0,29.83,ESE,123,8.1,8.1,93,0.00,RA,SKC,0.24,WeatherDisplay:10.37,2013-01-27 15:19:00,
2013-01-27 09:25:00,37.8,36.0,29.83,ESE,123,11.7,11.7,93,0.00,CLR,SKC,0.24,WeatherDisplay:10.37,2013-01-27 15:25:00,
2013-01-27 09:30:00,37.8,36.0,29.83,SE,135,10.4,10.4,93,0.00,CLR,SKC,0.24,WeatherDisplay:10.37,2013-01-27 15:30:00,
2013-01-27 09:35:00,37.8,36.0,29.83,SE,130,8.5,8.5,93,0.00,CLR,SKC,0.24,WeatherDisplay:10.37,2013-01-27 15:35:00,
2013-01-27 09:40:00,37.9,36.1,29.83,SE,137,11.7,11.7,93,0.00,CLR,SKC,0.24,WeatherDisplay:10.37,2013-01-27 15:40:00,
2013-01-27 09:45:00,37.9,36.1,29.83,SE,138,11.7,11.7,93,0.00,CLR,SKC,0.24,WeatherDisplay:10.37,2013-01-27 15:45:00,
2013-01-27 09:50:00,38.0,36.2,29.82,SSE,155,12.7,12.7,93,0.00,CLR,SKC,0.24,WeatherDisplay:10.37,2013-01-27 15:50:00,
2013-01-27 09:55:00,38.0,36.2,29.82,SSE,148,13.8,13.8,93,0.00,CLR,SKC,0.24,WeatherDisplay:10.37,2013-01-27 15:55:00,
2013-01-27 10:00:00,38.0,36.2,29.81,SSE,149,11.7,11.7,93,0.00,CLR,SKC,0.24,WeatherDisplay:10.37,2013-01-27 16:00:00,
2013-01-27 10:05:00,38.2,36.6,29.81,SSE,147,15.0,15.0,94,0.00,CLR,SKC,0.24,WeatherDisplay:10.37,2013-01-27 16:05:00,
2013-01-27 10:10:00,38.2,36.6,29.81,SE,144,13.8,13.8,94,0.00,CLR,SKC,0.24,WeatherDisplay:10.37,2013-01-27 16:10:00,
2013-01-27 10:15:00,38.3,36.7,29.81,SE,137,11.7,11.7,94,0.00,CLR,SKC,0.24,WeatherDisplay:10.37,2013-01-27 16:15:00,
2013-01-27 10:20:00,38.3,36.7,29.81,SE,140,11.7,11.7,94,0.00,CLR,SKC,0.24,WeatherDisplay:10.37,2013-01-27 16:20:00,
2013-01-27 10:25:00,38.5,36.9,29.81,SE,135,13.8,13.8,94,0.00,CLR,SKC,0.24,WeatherDisplay:10.37,2013-01-27 16:25:00,
2013-01-27 10:30:00,38.6,37.0,29.81,SE,145,12.7,12.7,94,0.00,CLR,SKC,0.24,WeatherDisplay:10.37,2013-01-27 16:30:00,
2013-01-27 10:35:00,38.8,37.2,29.81,SSE,164,12.7,12.7,94,0.00,CLR,SKC,0.24,WeatherDisplay:10.37,2013-01-27 16:35:00,
2013-01-27 10:40:00,38.8,37.2,29.81,SSE,152,10.6,10.6,94,0.00,CLR,SKC,0.24,WeatherDisplay:10.37,2013-01-27 16:40:00,
2013-01-27 10:45:00,38.9,37.3,29.81,ESE,117,11.7,11.7,94,0.00,CLR,SKC,0.24,WeatherDisplay:10.37,2013-01-27 16:45:00,
2013-01-27 10:50:00,39.1,37.5,29.80,SSE,148,8.5,8.5,94,0.00,CLR,SKC,0.24,WeatherDisplay:10.37,2013-01-27 16:50:00,
2013-01-27 10:55:00,39.2,37.6,29.80,SE,134,13.8,13.8,94,0.00,CLR,SKC,0.24,WeatherDisplay:10.37,2013-01-27 16:55:00,
2013-01-27 11:00:00,39.3,38.0,29.80,SSE,147,12.7,12.7,95,0.00,CLR,SKC,0.24,WeatherDisplay:10.37,2013-01-27 17:00:00,
2013-01-27 11:05:00,39.5,38.2,29.79,SSE,152,12.7,12.7,95,0.00,CLR,SKC,0.24,WeatherDisplay:10.37,2013-01-27 17:05:00,
2013-01-27 11:10:00,39.6,38.3,29.79,SE,144,11.7,11.7,95,0.00,CLR,SKC,0.24,WeatherDisplay:10.37,2013-01-27 17:10:00,
2013-01-27 11:15:00,39.6,38.3,29.79,SE,137,13.8,13.8,95,0.00,CLR,SKC,0.24,WeatherDisplay:10.37,2013-01-27 17:15:00,
2013-01-27 11:20:00,39.8,38.5,29.79,SE,134,11.5,11.5,95,0.00,CLR,SKC,0.24,WeatherDisplay:10.37,2013-01-27 17:20:00,
2013-01-27 11:25:00,39.9,38.6,29.79,SE,127,11.7,11.7,95,0.00,CLR,SKC,0.24,WeatherDisplay:10.37,2013-01-27 17:25:00,
2013-01-27 11:30:00,40.1,38.8,29.78,SSE,149,10.6,10.6,95,0.00,CLR,SKC,0.24,WeatherDisplay:10.37,2013-01-27 17:30:00,
2013-01-27 11:35:00,40.1,38.8,29.78,SE,135,8.5,8.5,95,0.00,CLR,SKC,0.24,WeatherDisplay:10.37,2013-01-27 17:35:00,
2013-01-27 11:40:00,40.2,38.9,29.78,SE,130,10.4,10.4,95,0.00,CLR,SKC,0.24,WeatherDisplay:10.37,2013-01-27 17:40:00,
2013-01-27 11:45:00,40.3,39.0,29.77,SE,134,11.7,11.7,95,0.00,CLR,SKC,0.24,WeatherDisplay:10.37,2013-01-27 17:45:00,
2013-01-27 11:50:00,40.5,39.2,29.77,ESE,120,10.4,10.4,95,0.00,CLR,SKC,0.24,WeatherDisplay:10.37,2013-01-27 17:50:00,
2013-01-27 11:55:00,40.6,39.3,29.76,SE,140,8.5,8.5,95,0.00,CLR,SKC,0.24,WeatherDisplay:10.37,2013-01-27 17:55:00,
2013-01-27 12:00:00,40.8,39.5,29.76,SE,131,8.5,8.5,95,0.00,CLR,SKC,0.24,WeatherDisplay:10.37,2013-01-27 18:00:00,
2013-01-27 12:05:00,40.9,39.6,29.76,SE,127,7.4,7.4,95,0.00,CLR,SKC,0.24,WeatherDisplay:10.37,2013-01-27 18:05:00,
2013-01-27 12:10:00,40.9,39.6,29.76,SE,130,5.8,5.8,95,0.00,CLR,SKC,0.24,WeatherDisplay:10.37,2013-01-27 18:10:00,
2013-01-27 12:15:00,41.1,39.8,29.76,SE,144,6.9,6.9,95,0.00,CLR,SKC,0.24,WeatherDisplay:10.37,2013-01-27 18:15:00,
2013-01-27 12:20:00,41.2,39.9,29.75,SE,141,6.9,6.9,95,0.00,CLR,SKC,0.24,WeatherDisplay:10.37,2013-01-27 18:20:00,
2013-01-27 12:25:00,41.3,40.0,29.75,SE,127,7.4,7.4,95,0.00,CLR,SKC,0.24,WeatherDisplay:10.37,2013-01-27 18:25:00,
2013-01-27 12:30:00,41.5,40.4,29.74,SSE,149,6.9,6.9,96,0.00,CLR,SKC,0.24,WeatherDisplay:10.37,2013-01-27 18:30:00,
2013-01-27 12:35:00,41.6,40.5,29.74,SSE,147,6.9,6.9,96,0.00,CLR,SKC,0.24,WeatherDisplay:10.37,2013-01-27 18:35:00,
2013-01-27 12:40:00,41.8,40.7,29.73,SE,142,6.9,6.9,96,0.00,CLR,SKC,0.24,WeatherDisplay:10.37,2013-01-27 18:40:00,
2013-01-27 12:45:00,41.9,40.8,29.73,SSE,154,8.5,8.5,96,0.00,CLR,SKC,0.24,WeatherDisplay:10.37,2013-01-27 18:45:00,
2013-01-27 12:50:00,42.1,41.0,29.73,SE,131,8.1,8.1,96,0.00,CLR,SKC,0.24,WeatherDisplay:10.37,2013-01-27 18:50:00,
2013-01-27 12:55:00,42.2,41.1,29.73,SSE,159,7.4,7.4,96,0.00,CLR,SKC,0.24,WeatherDisplay:10.37,2013-01-27 18:55:00,
2013-01-27 13:00:00,42.3,41.2,29.72,SE,132,7.4,7.4,96,0.01,RA,SKC,0.25,WeatherDisplay:10.37,2013-01-27 19:00:00,
2013-01-27 13:05:00,42.3,41.2,29.72,SE,140,8.5,8.5,96,0.01,RA,SKC,0.25,WeatherDisplay:10.37,2013-01-27 19:05:00,
2013-01-27 13:10:00,42.3,41.2,29.72,SE,142,9.5,9.5,96,0.01,,SKC,0.25,WeatherDisplay:10.37,2013-01-27 19:10:00,
2013-01-27 13:15:00,42.5,41.4,29.71,SSE,154,5.8,5.8,96,0.01,CLR,SKC,0.25,WeatherDisplay:10.37,2013-01-27 19:15:00,
2013-01-27 13:20:00,42.5,41.4,29.71,SE,135,7.4,7.4,96,0.01,CLR,SKC,0.25,WeatherDisplay:10.37,2013-01-27 19:20:00,
2013-01-27 13:25:00,42.6,41.5,29.71,SE,140,5.8,5.8,96,0.01,CLR,SKC,0.25,WeatherDisplay:10.37,2013-01-27 19:25:00,
2013-01-27 13:30:00,42.6,41.5,29.70,SE,141,7.4,7.4,96,0.01,CLR,SKC,0.25,WeatherDisplay:10.37,2013-01-27 19:30:00,
2013-01-27 13:35:00,42.6,41.5,29.70,SSE,155,6.9,6.9,96,0.01,CLR,SKC,0.25,WeatherDisplay:10.37,2013-01-27 19:35:00,
2013-01-27 13:40:00,42.8,41.7,29.69,SE,132,7.4,7.4,96,0.01,CLR,SKC,0.25,WeatherDisplay:10.37,2013-01-27 19:40:00,
2013-01-27 13:45:00,42.8,41.7,29.69,SE,131,8.5,8.5,96,0.01,CLR,SKC,0.25,WeatherDisplay:10.37,2013-01-27 19:45:00,
2013-01-27 13:50:00,42.8,41.7,29.69,SE,137,7.4,7.4,96,0.01,CLR,SKC,0.25,WeatherDisplay:10.37,2013-01-27 19:50:00,
2013-01-27 13:55:00,42.8,41.7,29.69,SE,144,10.4,10.4,96,0.01,CLR,SKC,0.25,WeatherDisplay:10.37,2013-01-27 19:55:00,
2013-01-27 14:00:00,42.8,41.7,29.69,SE,140,7.4,7.4,96,0.00,CLR,SKC,0.25,WeatherDisplay:10.37,2013-01-27 20:00:00,
2013-01-27 14:05:00,42.8,41.7,29.69,SSE,147,7.4,7.4,96,0.00,CLR,SKC,0.25,WeatherDisplay:10.37,2013-01-27 20:05:00,
2013-01-27 14:10:00,42.8,41.7,29.69,SE,137,7.4,7.4,96,0.00,CLR,SKC,0.25,WeatherDisplay:10.37,2013-01-27 20:10:00,
2013-01-27 14:15:00,42.8,41.7,29.69,SE,130,6.9,6.9,96,0.00,CLR,SKC,0.25,WeatherDisplay:10.37,2013-01-27 20:15:00,
2013-01-27 14:20:00,42.9,41.8,29.68,SE,144,7.4,7.4,96,0.01,RA,SKC,0.26,WeatherDisplay:10.37,2013-01-27 20:20:00,
2013-01-27 14:25:00,42.9,41.8,29.68,SSE,148,8.1,8.1,96,0.01,RA,SKC,0.26,WeatherDisplay:10.37,2013-01-27 20:25:00,
2013-01-27 14:30:00,42.9,41.8,29.68,SE,125,7.4,7.4,96,0.01,,SKC,0.26,WeatherDisplay:10.37,2013-01-27 20:30:00,
2013-01-27 14:35:00,43.1,42.0,29.68,SE,132,7.4,7.4,96,0.01,CLR,SKC,0.26,WeatherDisplay:10.37,2013-01-27 20:35:00,
2013-01-27 14:40:00,43.1,42.0,29.68,ESE,118,6.4,6.4,96,0.01,CLR,SKC,0.26,WeatherDisplay:10.37,2013-01-27 20:40:00,
2013-01-27 14:45:00,43.1,42.0,29.68,SE,130,5.8,5.8,96,0.01,CLR,SKC,0.26,WeatherDisplay:10.37,2013-01-27 20:45:00,
2013-01-27 14:50:00,43.1,42.0,29.68,ESE,117,7.4,7.4,96,0.01,CLR,SKC,0.26,WeatherDisplay:10.37,2013-01-27 20:50:00,
2013-01-27 14:55:00,43.2,42.1,29.68,ESE,113,6.9,6.9,96,0.01,CLR,SKC,0.26,WeatherDisplay:10.37,2013-01-27 20:55:00,
2013-01-27 15:01:00,43.1,42.0,29.68,ESE,113,5.8,5.8,96,0.01,CLR,SKC,0.26,WeatherDisplay:10.37,2013-01-27 21:01:00,
2013-01-27 15:06:00,43.1,42.0,29.68,ESE,113,4.6,4.6,96,0.02,RA,SKC,0.27,WeatherDisplay:10.37,2013-01-27 21:06:00,
2013-01-27 15:11:00,43.1,42.0,29.68,ESE,113,5.8,5.8,96,0.02,RA,SKC,0.27,WeatherDisplay:10.37,2013-01-27 21:11:00,
2013-01-27 15:16:00,43.1,42.0,29.68,ESE,113,5.8,5.8,96,0.02,,SKC,0.27,WeatherDisplay:10.37,2013-01-27 21:16:00,
2013-01-27 15:21:00,43.2,42.1,29.68,ESE,113,3.5,3.5,96,0.01,CLR,SKC,0.27,WeatherDisplay:10.37,2013-01-27 21:21:00,
2013-01-27 15:26:00,43.2,42.1,29.68,ESE,113,3.5,3.5,96,0.01,CLR,SKC,0.27,WeatherDisplay:10.37,2013-01-27 21:26:00,
2013-01-27 15:31:00,43.2,42.1,29.68,ESE,113,5.8,5.8,96,0.01,CLR,SKC,0.27,WeatherDisplay:10.37,2013-01-27 21:31:00,
2013-01-27 15:36:00,43.3,42.2,29.68,ESE,113,3.5,3.5,96,0.01,CLR,SKC,0.27,WeatherDisplay:10.37,2013-01-27 21:36:00,
2013-01-27 15:41:00,43.3,42.2,29.67,ESE,113,3.5,3.5,96,0.01,CLR,SKC,0.27,WeatherDisplay:10.37,2013-01-27 21:41:00,
2013-01-27 15:46:00,43.5,42.4,29.67,ESE,113,5.8,5.8,96,0.01,CLR,SKC,0.27,WeatherDisplay:10.37,2013-01-27 21:46:00,
2013-01-27 15:51:00,43.5,42.4,29.67,ESE,113,5.8,5.8,96,0.01,CLR,SKC,0.27,WeatherDisplay:10.37,2013-01-27 21:51:00,
2013-01-27 15:56:00,43.5,42.4,29.67,ESE,111,6.9,6.9,96,0.01,CLR,SKC,0.27,WeatherDisplay:10.37,2013-01-27 21:56:00,
2013-01-27 16:01:00,43.5,42.4,29.67,ESE,113,6.9,6.9,96,0.01,CLR,SKC,0.27,WeatherDisplay:10.37,2013-01-27 22:01:00,
2013-01-27 16:06:00,43.5,42.4,29.67,ESE,113,6.4,6.4,96,0.00,CLR,SKC,0.27,WeatherDisplay:10.37,2013-01-27 22:06:00,
2013-01-27 16:11:00,43.6,42.5,29.67,ESE,110,6.9,6.9,96,0.00,CLR,SKC,0.27,WeatherDisplay:10.37,2013-01-27 22:11:00,
2013-01-27 16:16:00,43.6,42.5,29.67,ESE,108,6.9,6.9,96,0.00,CLR,SKC,0.27,WeatherDisplay:10.37,2013-01-27 22:16:00,
2013-01-27 16:21:00,43.6,42.5,29.67,ESE,108,3.5,3.5,96,0.00,CLR,SKC,0.27,WeatherDisplay:10.37,2013-01-27 22:21:00,
2013-01-27 16:26:00,43.6,42.5,29.67,ESE,108,2.3,0.0,96,0.00,CLR,SKC,0.27,WeatherDisplay:10.37,2013-01-27 22:26:00,
2013-01-27 16:31:00,43.8,42.7,29.68,ESE,113,2.3,2.3,96,0.00,CLR,SKC,0.27,WeatherDisplay:10.37,2013-01-27 22:31:00,
2013-01-27 16:36:00,43.8,42.7,29.67,ESE,113,2.1,2.1,96,0.00,CLR,SKC,0.27,WeatherDisplay:10.37,2013-01-27 22:36:00,
2013-01-27 16:41:00,43.9,43.1,29.67,ESE,114,4.6,4.6,97,0.00,CLR,SKC,0.27,WeatherDisplay:10.37,2013-01-27 22:41:00,
2013-01-27 16:46:00,44.1,43.3,29.67,ESE,114,0.0,0.0,97,0.00,CLR,SKC,0.27,WeatherDisplay:10.37,2013-01-27 22:46:00,
2013-01-27 16:51:00,44.1,43.3,29.68,ESE,114,1.1,1.1,97,0.00,CLR,SKC,0.27,WeatherDisplay:10.37,2013-01-27 22:51:00,
2013-01-27 16:56:00,44.2,43.4,29.68,ESE,114,1.1,1.1,97,0.00,CLR,SKC,0.27,WeatherDisplay:10.37,2013-01-27 22:56:00,
2013-01-27 17:01:00,44.2,43.4,29.68,ESE,114,0.0,0.0,97,0.00,CLR,SKC,0.27,WeatherDisplay:10.37,2013-01-27 23:01:00,
2013-01-27 17:06:00,44.1,43.3,29.67,ESE,114,0.0,0.0,97,0.00,CLR,SKC,0.27,WeatherDisplay:10.37,2013-01-27 23:06:00,
2013-01-27 17:11:00,43.9,42.8,29.68,ESE,114,0.0,0.0,96,0.00,CLR,SKC,0.27,WeatherDisplay:10.37,2013-01-27 23:11:00,
2013-01-27 17:16:00,43.9,42.8,29.68,ESE,114,2.1,2.1,96,0.00,CLR,SKC,0.27,WeatherDisplay:10.37,2013-01-27 23:16:00,
2013-01-27 17:21:00,44.1,43.3,29.67,ESE,114,1.1,1.1,97,0.00,CLR,SKC,0.27,WeatherDisplay:10.37,2013-01-27 23:21:00,
2013-01-27 17:26:00,44.1,43.3,29.67,ESE,114,0.0,0.0,97,0.00,CLR,SKC,0.27,WeatherDisplay:10.37,2013-01-27 23:26:00,
2013-01-27 17:31:00,43.8,42.7,29.68,ESE,114,1.1,0.0,96,0.00,CLR,SKC,0.27,WeatherDisplay:10.37,2013-01-27 23:31:00,
2013-01-27 17:36:00,43.6,42.5,29.68,ESE,114,0.0,0.0,96,0.00,CLR,SKC,0.27,WeatherDisplay:10.37,2013-01-27 23:36:00,
2013-01-27 17:41:00,43.3,42.2,29.69,NNW,329,7.4,7.4,96,0.00,CLR,SKC,0.27,WeatherDisplay:10.37,2013-01-27 23:41:00,
2013-01-27 17:46:00,43.1,42.0,29.70,NW,322,17.3,17.3,96,0.01,RA,SKC,0.28,WeatherDisplay:10.37,2013-01-27 23:46:00,
2013-01-27 17:51:00,42.8,41.7,29.69,NW,326,5.8,5.8,96,0.01,RA,SKC,0.28,WeatherDisplay:10.37,2013-01-27 23:51:00,
2013-01-27 17:56:00,42.9,41.8,29.69,NNW,332,5.8,5.8,96,0.01,CLR,SKC,0.28,WeatherDisplay:10.37,2013-01-27 23:56:00,
2013-01-27 18:01:00,42.9,42.1,29.69,NNW,332,2.3,2.3,97,0.01,CLR,SKC,0.28,WeatherDisplay:10.37,2013-01-28 00:01:00,
2013-01-27 18:06:00,42.9,42.1,29.69,NNW,332,0.0,0.0,97,0.01,CLR,SKC,0.28,WeatherDisplay:10.37,2013-01-28 00:06:00,
2013-01-27 18:11:00,42.9,42.1,29.70,NNW,332,2.3,2.3,97,0.01,CLR,SKC,0.28,WeatherDisplay:10.37,2013-01-28 00:11:00,
2013-01-27 18:16:00,42.9,42.1,29.70,NNW,332,1.1,0.0,97,0.01,CLR,SKC,0.28,WeatherDisplay:10.37,2013-01-28 00:16:00,
2013-01-27 18:21:00,42.9,42.1,29.71,NNW,332,1.1,0.0,97,0.01,CLR,SKC,0.28,WeatherDisplay:10.37,2013-01-28 00:21:00,
2013-01-27 18:26:00,42.8,42.0,29.71,NNW,332,0.0,0.0,97,0.01,CLR,SKC,0.28,WeatherDisplay:10.37,2013-01-28 00:26:00,
2013-01-27 18:31:00,42.8,42.0,29.71,NNW,332,0.0,0.0,97,0.01,CLR,SKC,0.28,WeatherDisplay:10.37,2013-01-28 00:31:00,
2013-01-27 18:36:00,42.8,42.0,29.71,NNW,332,0.0,0.0,97,0.01,CLR,SKC,0.28,WeatherDisplay:10.37,2013-01-28 00:36:00,
2013-01-27 18:41:00,42.8,42.0,29.72,NNW,332,0.0,0.0,97,0.01,CLR,SKC,0.28,WeatherDisplay:10.37,2013-01-28 00:41:00,
2013-01-27 18:46:00,42.8,42.0,29.72,NNW,332,0.0,0.0,97,0.00,CLR,SKC,0.28,WeatherDisplay:10.37,2013-01-28 00:46:00,
2013-01-27 18:51:00,42.8,42.0,29.72,NNW,332,0.0,0.0,97,0.00,CLR,SKC,0.28,WeatherDisplay:10.37,2013-01-28 00:51:00,
2013-01-27 18:56:00,42.8,42.0,29.72,NNW,332,0.0,0.0,97,0.00,CLR,SKC,0.28,WeatherDisplay:10.37,2013-01-28 00:56:00,
2013-01-27 19:01:00,42.6,41.8,29.72,NNW,332,0.0,0.0,97,0.00,CLR,SKC,0.28,WeatherDisplay:10.37,2013-01-28 01:01:00,
2013-01-27 19:06:00,42.6,41.8,29.73,NNW,332,2.3,2.3,97,0.00,CLR,SKC,0.28,WeatherDisplay:10.37,2013-01-28 01:06:00,
2013-01-27 19:11:00,42.6,41.8,29.73,NNW,332,1.1,1.1,97,0.00,CLR,SKC,0.28,WeatherDisplay:10.37,2013-01-28 01:11:00,
2013-01-27 19:16:00,42.6,41.8,29.73,NNW,332,1.1,1.1,97,0.00,CLR,SKC,0.28,WeatherDisplay:10.37,2013-01-28 01:16:00,
2013-01-27 19:21:00,42.5,41.7,29.73,NNW,332,0.0,0.0,97,0.00,CLR,SKC,0.28,WeatherDisplay:10.37,2013-01-28 01:21:00,
2013-01-27 19:26:00,42.3,41.5,29.74,NNW,332,1.1,0.0,97,0.00,CLR,SKC,0.28,WeatherDisplay:10.37,2013-01-28 01:26:00,
2013-01-27 19:31:00,42.5,41.7,29.74,NNW,332,0.0,0.0,97,0.00,CLR,SKC,0.28,WeatherDisplay:10.37,2013-01-28 01:31:00,
2013-01-27 19:36:00,42.5,41.7,29.74,NNW,332,2.3,2.3,97,0.00,CLR,SKC,0.28,WeatherDisplay:10.37,2013-01-28 01:36:00,
2013-01-27 19:41:00,42.3,41.5,29.74,NNW,332,2.3,2.3,97,0.00,CLR,SKC,0.28,WeatherDisplay:10.37,2013-01-28 01:41:00,
2013-01-27 19:46:00,42.3,41.5,29.74,WNW,299,5.3,5.3,97,0.00,CLR,SKC,0.28,WeatherDisplay:10.37,2013-01-28 01:46:00,
2013-01-27 19:51:00,42.3,41.5,29.74,WNW,302,6.9,6.9,97,0.00,CLR,SKC,0.28,WeatherDisplay:10.37,2013-01-28 01:51:00,
2013-01-27 19:56:00,42.5,41.7,29.74,NW,305,5.8,5.8,97,0.00,CLR,SKC,0.28,WeatherDisplay:10.37,2013-01-28 01:56:00,
2013-01-27 20:01:00,42.5,41.7,29.74,WNW,303,6.9,6.9,97,0.00,CLR,SKC,0.28,WeatherDisplay:10.37,2013-01-28 02:01:00,
2013-01-27 20:06:00,42.3,41.5,29.74,WNW,303,2.3,2.3,97,0.00,CLR,SKC,0.28,WeatherDisplay:10.37,2013-01-28 02:06:00,
2013-01-27 20:11:00,42.3,41.5,29.75,WNW,288,2.3,2.3,97,0.00,CLR,SKC,0.28,WeatherDisplay:10.37,2013-01-28 02:11:00,
2013-01-27 20:16:00,42.3,41.5,29.75,WNW,288,2.3,2.3,97,0.00,CLR,SKC,0.28,WeatherDisplay:10.37,2013-01-28 02:16:00,
2013-01-27 20:21:00,42.3,41.5,29.75,West,279,3.5,3.5,97,0.00,CLR,SKC,0.28,WeatherDisplay:10.37,2013-01-28 02:21:00,
2013-01-27 20:26:00,42.2,41.4,29.75,WNW,302,6.9,6.9,97,0.00,CLR,SKC,0.28,WeatherDisplay:10.37,2013-01-28 02:26:00,
2013-01-27 20:31:00,42.2,41.4,29.76,WNW,299,3.5,3.5,97,0.00,CLR,SKC,0.28,WeatherDisplay:10.37,2013-01-28 02:31:00,
2013-01-27 20:36:00,42.1,41.3,29.76,NW,310,3.5,3.5,97,0.00,CLR,SKC,0.28,WeatherDisplay:10.37,2013-01-28 02:36:00,
2013-01-27 20:41:00,41.9,41.1,29.76,NW,309,6.9,6.9,97,0.00,CLR,SKC,0.28,WeatherDisplay:10.37,2013-01-28 02:41:00,
2013-01-27 20:46:00,41.8,41.0,29.77,NW,309,5.3,5.3,97,0.00,CLR,SKC,0.28,WeatherDisplay:10.37,2013-01-28 02:46:00,
2013-01-27 20:51:00,41.6,40.8,29.77,NW,310,11.7,11.7,97,0.00,CLR,SKC,0.28,WeatherDisplay:10.37,2013-01-28 02:51:00,
2013-01-27 20:56:00,41.6,40.8,29.77,NW,306,7.4,7.4,97,0.01,RA,SKC,0.30,WeatherDisplay:10.37,2013-01-28 02:56:00,
2013-01-27 21:02:00,41.6,40.8,29.77,NW,309,7.4,7.4,97,0.01,RA,SKC,0.30,WeatherDisplay:10.37,2013-01-28 03:02:00,
2013-01-27 21:07:00,41.5,40.7,29.77,NW,308,7.4,7.4,97,0.01,CLR,SKC,0.30,WeatherDisplay:10.37,2013-01-28 03:07:00,
2013-01-27 21:12:00,41.3,40.5,29.77,WNW,303,6.9,6.9,97,0.01,CLR,SKC,0.30,WeatherDisplay:10.37,2013-01-28 03:12:00,
2013-01-27 21:17:00,41.2,40.4,29.78,NW,308,6.9,6.9,97,0.01,CLR,SKC,0.30,WeatherDisplay:10.37,2013-01-28 03:17:00,
2013-01-27 21:22:00,41.2,40.4,29.78,NW,323,8.5,8.5,97,0.01,CLR,SKC,0.30,WeatherDisplay:10.37,2013-01-28 03:22:00,
2013-01-27 21:27:00,41.1,40.3,29.78,NW,317,7.4,7.4,97,0.01,CLR,SKC,0.30,WeatherDisplay:10.37,2013-01-28 03:27:00,
2013-01-27 21:32:00,41.1,40.3,29.78,NW,312,7.4,7.4,97,0.01,CLR,SKC,0.30,WeatherDisplay:10.37,2013-01-28 03:32:00,
2013-01-27 21:37:00,40.9,40.1,29.78,NW,309,6.9,6.9,97,0.01,CLR,SKC,0.30,WeatherDisplay:10.37,2013-01-28 03:37:00,
2013-01-27 21:42:00,40.8,40.0,29.78,NW,313,7.4,7.4,97,0.01,CLR,SKC,0.30,WeatherDisplay:10.37,2013-01-28 03:42:00,
2013-01-27 21:47:00,40.6,39.8,29.79,NW,312,5.8,5.8,97,0.01,CLR,SKC,0.30,WeatherDisplay:10.37,2013-01-28 03:47:00,
2013-01-27 21:52:00,40.5,39.7,29.79,WNW,284,6.9,6.9,97,0.01,CLR,SKC,0.30,WeatherDisplay:10.37,2013-01-28 03:52:00,
2013-01-27 21:57:00,40.5,39.7,29.79,WNW,303,4.6,4.6,97,0.00,CLR,SKC,0.30,WeatherDisplay:10.37,2013-01-28 03:57:00,
2013-01-27 22:02:00,40.2,39.4,29.79,WNW,303,3.5,3.5,97,0.00,CLR,SKC,0.30,WeatherDisplay:10.37,2013-01-28 04:02:00,
2013-01-27 22:07:00,40.1,39.3,29.79,WNW,302,6.9,6.9,97,0.00,CLR,SKC,0.30,WeatherDisplay:10.37,2013-01-28 04:07:00,
2013-01-27 22:12:00,40.1,39.3,29.79,WNW,300,5.3,5.3,97,0.00,CLR,SKC,0.30,WeatherDisplay:10.37,2013-01-28 04:12:00,
2013-01-27 22:17:00,39.9,39.1,29.79,WNW,292,5.8,5.8,97,0.00,CLR,SKC,0.30,WeatherDisplay:10.37,2013-01-28 04:17:00,
2013-01-27 22:22:00,40.1,39.3,29.79,NW,308,8.1,8.1,97,0.00,CLR,SKC,0.30,WeatherDisplay:10.37,2013-01-28 04:22:00,
2013-01-27 22:27:00,39.9,39.1,29.79,NW,313,8.5,8.5,97,0.00,CLR,SKC,0.30,WeatherDisplay:10.37,2013-01-28 04:27:00,
2013-01-27 22:32:00,39.8,39.0,29.79,NW,323,11.5,11.5,97,0.00,CLR,SKC,0.30,WeatherDisplay:10.37,2013-01-28 04:32:00,
2013-01-27 22:37:00,39.6,38.8,29.80,NW,306,8.5,8.5,97,0.00,CLR,SKC,0.30,WeatherDisplay:10.37,2013-01-28 04:37:00,
2013-01-27 22:42:00,39.6,38.8,29.80,NW,320,8.1,8.1,97,0.00,CLR,SKC,0.30,WeatherDisplay:10.37,2013-01-28 04:42:00,
2013-01-27 22:47:00,39.6,38.8,29.80,NNW,334,8.5,8.5,97,0.00,CLR,SKC,0.30,WeatherDisplay:10.37,2013-01-28 04:47:00,
2013-01-27 22:52:00,39.5,38.7,29.81,NW,322,8.5,8.5,97,0.00,CLR,SKC,0.30,WeatherDisplay:10.37,2013-01-28 04:52:00,
2013-01-27 22:57:00,39.5,38.7,29.81,NW,310,6.9,6.9,97,0.00,CLR,SKC,0.30,WeatherDisplay:10.37,2013-01-28 04:57:00,
2013-01-27 23:00:00,39.3,38.5,29.81,NW,317,6.9,6.9,97,0.00,CLR,SKC,0.30,WeatherDisplay:10.37,2013-01-28 05:00:00,
2013-01-27 23:01:00,39.3,38.5,29.81,NW,317,5.8,5.8,97,0.00,CLR,SKC,0.30,WeatherDisplay:10.37,2013-01-28 05:01:00,
2013-01-27 23:03:00,39.3,38.5,29.81,NW,305,7.4,7.4,97,0.00,CLR,SKC,0.30,WeatherDisplay:10.37,2013-01-28 05:03:00,
2013-01-27 23:08:00,39.2,38.4,29.82,NW,315,7.4,7.4,97,0.00,CLR,SKC,0.30,WeatherDisplay:10.37,2013-01-28 05:08:00,
2013-01-27 23:13:00,39.1,38.3,29.82,NNW,327,5.8,5.8,97,0.00,CLR,SKC,0.30,WeatherDisplay:10.37,2013-01-28 05:13:00,
2013-01-27 23:18:00,38.9,38.1,29.81,NW,315,7.4,7.4,97,0.00,CLR,SKC,0.30,WeatherDisplay:10.37,2013-01-28 05:18:00,
2013-01-27 23:23:00,38.9,38.1,29.81,NW,320,6.9,6.9,97,0.00,CLR,SKC,0.30,WeatherDisplay:10.37,2013-01-28 05:23:00,
2013-01-27 23:28:00,38.8,38.0,29.82,NW,312,7.4,7.4,97,0.00,CLR,SKC,0.30,WeatherDisplay:10.37,2013-01-28 05:28:00,
2013-01-27 23:34:00,38.8,38.0,29.81,WNW,298,7.4,7.4,97,0.00,CLR,SKC,0.30,WeatherDisplay:10.37,2013-01-28 05:34:00,
2013-01-27 23:39:00,38.6,37.8,29.82,NW,324,7.4,7.4,97,0.00,CLR,SKC,0.30,WeatherDisplay:10.37,2013-01-28 05:39:00,
2013-01-27 23:44:00,38.6,37.8,29.82,NW,309,2.3,2.3,97,0.00,CLR,SKC,0.30,WeatherDisplay:10.37,2013-01-28 05:44:00,
2013-01-27 23:49:00,38.5,37.7,29.82,WNW,296,5.8,5.8,97,0.00,CLR,SKC,0.30,WeatherDisplay:10.37,2013-01-28 05:49:00,
2013-01-27 23:54:00,38.5,37.7,29.82,NW,308,6.9,6.9,97,0.00,CLR,SKC,0.30,WeatherDisplay:10.37,2013-01-28 05:54:00,
2013-01-27 23:59:00,38.5,37.7,29.82,NW,309,6.9,6.9,97,0.00,CLR,SKC,0.30,WeatherDisplay:10.37,2013-01-28 05:59:00,